Wind_Speed
5 4 4 4 4 4 4 3 3 3 2 1 1 1 1 1 2 1 1 1 1 1 2 2 2 3 3 3 3 3 3 4 5 6 6 6 6 7 7 8 9 9 9
6 5 4 3 3 3 3 3 3 2 2 2 1 1 1 2 2 2 2 2 3 2 2 2 3 3 3 3 4 4 4 4 5 6 6 7 7 8 8 9 10 10 11
6 5 4 3 2 2 2 2 2 2 2 2 2 2 2 2 2 3 3 3 3 3 3 4 4 5 5 6 6 5 5 5 6 6 7 8 8 9 9 10 11 12 12
4 4 3 3 3 2 2 2 2 3 3 3 3 2 2 3 3 4 4 4 4 4 4 5 6 6 7 7 6 6 6 7 8 8 9 9 10 10 10 11 12 13 13
4 4 4 3 3 3 3 3 3 3 3 4 4 4 3 3 4 4 4 4 5 5 5 6 6 6 7 7 8 8 8 9 9 10 11 11 11 11 11 12 12 13 14
4 4 4 4 4 3 3 3 4 4 4 5 5 5 4 4 4 4 4 5 5 6 6 6 7 7 8 9 9 10 10 10 11 11 11 12 12 12 12 13 13 14 14
5 5 5 4 4 4 4 4 4 5 5 6 6 5 5 5 5 5 5 6 6 7 7 8 9 9 10 9 10 10 11 12 12 11 12 12 13 13 13 14 15 15 16
6 6 6 5 5 5 5 5 5 6 6 7 7 7 7 6 6 6 6 7 7 7 7 8 9 10 10 10 10 11 11 12 12 13 13 13 13 14 15 15 15 15 16
7 7 7 7 6 6 6 5 6 6 6 7 8 8 8 8 7 7 8 8 8 9 10 10 10 10 11 11 11 12 12 13 13 14 14 14 14 15 16 16 16 15 16
8 9 8 8 8 7 7 7 7 7 8 9 9 9 9 9 9 8 9 10 10 11 11 12 12 12 12 11 12 13 14 14 14 14 15 15 16 16 17 16 17 18 18
9 9 9 9 9 9 9 9 9 9 9 9 10 10 11 10 11 11 11 11 11 12 12 12 13 13 12 13 13 14 14 15 15 15 15 15 16 16 16 17 18 18 19
10 10 10 10 10 10 10 10 10 10 10 10 10 10 11 11 11 12 12 12 13 14 14 13 13 13 13 14 14 14 15 15 16 16 16 16 17 17 18 18 19 19 20
10 11 11 11 11 11 11 11 10 10 10 11 11 12 12 12 13 13 14 14 14 15 15 15 14 15 15 16 16 16 16 17 18 18 17 18 18 19 19 19 20 21 21
11 12 11 11 11 11 11 11 11 11 12 12 12 13 13 14 14 14 14 14 14 15 15 16 16 16 16 17 17 18 18 18 19 20 20 20 21 21 21 21 22 23 23
12 12 12 12 12 12 12 12 12 12 12 13 13 14 14 15 15 15 14 14 15 15 15 16 16 16 17 18 18 19 20 20 21 21 22 22 22 22 22 23 24 24 24
12 12 12 13 13 13 13 13 13 13 13 14 14 14 14 15 15 15 15 16 16 16 17 17 17 17 18 18 19 19 20 21 21 22 23 23 24 24 24 25 25 25 25
13 13 13 13 13 14 14 14 14 14 14 15 15 15 15 15 15 15 16 16 16 17 17 17 17 18 18 19 19 19 20 20 21 22 23 24 25 25 25 26 26 26 26
14 14 14 14 14 14 15 15 15 15 16 15 15 15 16 15 16 16 17 17 18 18 18 19 19 20 19 20 19 19 20 20 21 22 22 23 23 24 25 25 26 25 25
14 15 15 15 15 16 16 17 17 17 17 16 16 16 17 17 17 17 18 18 18 19 19 19 20 20 20 20 20 20 21 21 22 22 22 22 23 23 24 24 24 25 25
14 15 15 16 16 16 17 18 17 17 17 17 17 17 17 17 17 18 18 18 19 19 19 20 21 20 21 21 21 20 21 21 22 22 23 23 23 23 23 24 25 26 27
15 16 16 17 17 17 18 18 18 18 18 19 19 19 19 18 18 19 19 19 20 20 21 21 21 21 21 21 21 21 22 22 23 23 24 24 24 24 24 25 26 27 29
16 17 17 18 18 18 19 19 19 19 19 20 20 19 19 19 19 19 20 21 21 21 21 21 22 22 22 22 22 23 23 23 24 24 25 25 26 26 27 28 28 29 31
17 18 18 18 19 20 20 20 20 20 21 21 20 20 19 20 20 20 21 21 22 22 22 23 23 23 23 23 24 24 25 25 26 26 27 27 28 28 29 29 30 30 31
18 18 18 19 19 20 20 20 21 21 21 21 21 21 20 20 21 21 22 22 23 23 23 24 24 24 24 24 25 26 26 26 27 28 29 29 30 30 30 30 31 31 31
18 18 18 19 19 19 20 20 21 22 22 21 21 21 21 22 22 22 23 23 23 24 24 24 25 26 26 26 26 27 28 28 29 30 30 31 31 31 30 30 30 31 31
18 19 19 19 19 20 21 21 21 22 22 22 22 23 23 23 24 24 24 24 24 24 25 25 25 27 27 27 28 29 29 30 30 30 31 31 31 31 31 31 31 31 32
Wind_Direction
78 71 71 76 81 87 83 85 87 81 89 70 8 305 302 309 321 337 345 319 313 313 294 281 268 268 261 255 258 257 260 253 256 259 259 261 260 260 261 258 260 261 261
68 70 67 65 72 80 83 77 72 64 56 32 349 316 309 311 305 292 283 287 288 296 279 276 267 266 260 255 265 264 267 267 266 267 264 266 265 265 267 266 264 262 262
61 63 61 63 60 53 54 50 52 46 32 10 341 306 306 304 293 286 278 276 276 275 262 267 266 263 264 264 273 271 276 274 274 275 271 271 272 270 272 273 269 265 265
49 47 43 38 35 34 41 40 30 21 16 358 342 318 320 320 291 282 268 271 269 270 266 275 275 272 268 267 273 275 278 279 277 277 275 275 274 274 276 274 272 268 269
36 34 25 20 26 20 22 22 16 7 355 343 336 316 307 307 303 288 284 285 278 276 281 280 283 283 276 271 274 278 281 282 283 283 282 278 277 275 275 274 275 275 275
12 3 358 356 353 357 1 5 356 360 352 336 324 324 315 299 306 306 300 302 298 288 287 287 287 285 282 278 278 280 281 281 283 283 282 279 278 277 279 278 279 279 278
358 355 346 343 343 335 335 337 335 338 333 331 324 326 325 317 317 304 300 299 298 293 289 289 288 286 284 280 280 279 279 282 283 285 282 281 278 277 281 283 284 283 280
359 359 349 345 335 332 322 323 321 321 321 321 326 327 321 323 327 324 312 305 300 295 291 291 294 291 285 281 282 279 281 283 285 285 285 282 279 280 282 283 282 282 281
356 352 344 340 332 333 332 328 327 318 316 318 324 326 329 328 326 320 311 301 296 293 292 291 294 293 289 285 282 281 282 284 285 283 284 284 282 282 284 282 282 282 283
350 347 343 334 327 319 319 324 322 316 316 317 316 317 318 318 315 312 309 302 296 294 291 290 292 293 290 285 283 282 284 284 283 286 287 288 288 286 283 281 281 281 279
353 345 343 334 328 321 317 316 315 314 316 319 317 315 314 314 312 309 306 305 301 298 296 292 290 292 290 289 289 288 286 289 287 287 290 289 288 289 287 283 283 282 281
352 344 340 340 335 331 327 322 317 314 315 316 317 317 317 316 314 311 307 304 299 297 297 296 296 294 292 291 290 292 292 292 290 287 289 290 289 288 287 286 284 284 284
347 343 341 340 337 336 333 328 324 322 321 318 314 312 313 314 311 307 305 305 302 299 296 294 294 294 292 291 290 290 290 288 287 286 287 288 288 288 287 286 287 285 284
348 346 343 341 339 338 337 334 328 322 320 317 315 312 312 314 311 308 306 305 305 303 301 298 294 292 292 291 291 292 290 287 286 285 287 287 287 286 287 286 286 286 285
347 346 345 342 338 334 332 331 330 328 323 318 316 316 317 317 316 314 311 309 308 306 304 301 298 296 295 295 293 292 291 287 287 287 287 287 287 286 286 287 286 286 286
343 343 342 340 337 334 331 328 327 326 322 320 320 321 320 319 320 319 316 313 311 310 308 308 303 300 298 296 295 296 294 294 293 291 289 288 287 286 286 287 286 286 285
339 340 340 340 337 333 330 327 324 323 322 320 320 319 320 322 319 319 318 316 313 311 311 309 308 307 304 301 299 300 299 298 299 295 291 290 289 288 288 289 288 287 287
335 335 335 335 334 331 327 324 321 320 320 318 318 317 319 322 322 320 318 318 316 311 309 307 307 307 306 304 302 303 302 300 299 298 297 296 295 295 292 290 290 288 288
330 331 330 330 330 329 327 325 323 320 320 321 321 320 319 319 320 320 319 318 319 317 314 312 311 309 308 306 306 303 303 304 303 303 302 301 301 300 297 295 293 292 292
326 327 327 328 329 328 327 326 324 322 321 321 322 320 319 319 318 319 320 320 319 319 317 315 314 313 311 311 309 308 307 305 305 304 304 303 303 302 300 298 297 296 295
319 322 323 323 325 325 325 325 324 323 322 322 322 321 319 319 318 317 317 317 317 316 316 315 314 312 311 312 310 311 310 308 307 306 306 305 304 304 302 301 299 298 298
317 320 320 320 321 322 323 322 324 324 322 322 321 320 318 318 318 318 317 315 315 315 313 312 312 312 310 310 309 310 309 308 308 307 306 305 304 303 301 301 300 299 298
315 318 318 318 318 319 320 321 323 324 322 321 318 317 318 317 318 318 317 316 315 314 314 313 312 311 309 308 309 309 308 308 308 307 306 304 303 301 300 301 301 300 300
314 316 313 314 316 318 321 322 322 322 321 321 320 319 317 316 317 316 317 316 316 316 315 314 313 311 309 308 310 310 309 308 307 306 305 304 303 301 300 299 300 300 300
310 312 313 313 315 315 318 320 322 322 322 323 323 321 317 315 316 316 316 315 314 315 315 315 315 313 311 310 311 312 311 308 307 307 306 305 304 303 302 301 301 301 300
311 310 311 312 314 315 315 316 318 321 322 320 320 320 318 316 315 314 314 313 313 313 314 315 315 314 312 311 311 311 310 309 308 307 306 305 304 304 303 303 302 300 300
Height
5892 5891 5891 5893 5893 5893 5892 5893 5893 5892 5892 5892 5892 5892 5892 5892 5892 5891 5891 5891 5891 5891 5891 5892 5892 5893 5893 5893 5893 5893 5893 5894 5894 5894 5894 5894 5894 5894 5894 5894 5895 5895 5895
5894 5893 5894 5894 5893 5893 5893 5893 5893 5893 5892 5892 5892 5892 5892 5892 5891 5891 5891 5891 5891 5891 5891 5891 5891 5892 5892 5892 5892 5892 5892 5892 5892 5892 5893 5893 5893 5893 5893 5893 5893 5893 5893
5895 5895 5895 5895 5894 5894 5894 5893 5893 5893 5893 5892 5892 5892 5891 5891 5891 5890 5890 5890 5890 5890 5889 5890 5890 5890 5890 5891 5891 5891 5891 5891 5891 5891 5891 5891 5891 5891 5891 5890 5890 5890 5890
5896 5896 5896 5895 5895 5894 5894 5894 5893 5893 5893 5892 5892 5891 5891 5890 5890 5889 5889 5888 5888 5887 5887 5888 5889 5889 5889 5889 5889 5889 5889 5889 5889 5889 5889 5889 5889 5888 5888 5888 5888 5887 5887
5897 5896 5896 5896 5895 5895 5894 5894 5893 5893 5893 5892 5892 5891 5890 5890 5889 5888 5888 5888 5887 5887 5886 5887 5887 5887 5887 5887 5887 5887 5887 5887 5887 5887 5886 5886 5886 5886 5885 5885 5885 5884 5884
5897 5897 5896 5896 5895 5895 5894 5894 5894 5893 5893 5892 5891 5891 5890 5889 5888 5888 5887 5887 5886 5886 5886 5885 5886 5886 5885 5885 5885 5885 5885 5885 5884 5884 5884 5883 5883 5883 5883 5882 5882 5881 5881
5898 5897 5896 5896 5895 5894 5894 5894 5893 5893 5892 5891 5891 5890 5889 5888 5887 5886 5886 5886 5885 5884 5884 5884 5883 5883 5883 5883 5883 5882 5882 5882 5882 5881 5880 5880 5880 5879 5879 5879 5878 5878 5877
5898 5897 5896 5896 5895 5894 5894 5893 5893 5892 5892 5891 5890 5889 5888 5888 5886 5886 5885 5884 5883 5883 5882 5882 5881 5881 5881 5880 5880 5880 5879 5879 5878 5878 5877 5877 5876 5876 5876 5875 5874 5874 5873
5898 5897 5896 5895 5894 5894 5893 5893 5892 5892 5891 5890 5889 5888 5887 5886 5885 5885 5884 5883 5882 5881 5881 5880 5879 5878 5878 5877 5877 5877 5876 5876 5875 5874 5874 5873 5872 5872 5872 5871 5871 5870 5869
5898 5897 5896 5895 5894 5893 5893 5892 5892 5891 5890 5889 5888 5887 5886 5884 5884 5883 5883 5881 5880 5879 5878 5878 5877 5876 5875 5874 5874 5873 5873 5872 5871 5871 5870 5869 5868 5868 5867 5867 5866 5866 5865
5898 5897 5896 5895 5894 5893 5892 5891 5891 5890 5889 5888 5886 5885 5884 5883 5882 5881 5880 5879 5878 5876 5875 5875 5874 5873 5872 5871 5871 5870 5869 5868 5868 5867 5866 5865 5864 5864 5863 5862 5862 5861 5860
5899 5897 5896 5895 5893 5892 5891 5890 5889 5888 5887 5886 5885 5884 5883 5881 5880 5879 5878 5876 5875 5874 5872 5872 5871 5870 5869 5868 5867 5866 5865 5864 5864 5863 5862 5861 5860 5859 5858 5857 5857 5856 5855
5899 5897 5896 5894 5893 5891 5890 5889 5888 5887 5885 5884 5883 5882 5881 5879 5878 5876 5875 5873 5872 5870 5869 5868 5867 5866 5865 5864 5863 5862 5861 5860 5859 5858 5858 5856 5855 5854 5853 5852 5851 5850 5849
5898 5897 5895 5894 5892 5891 5889 5888 5886 5885 5884 5882 5881 5880 5878 5877 5875 5873 5872 5871 5869 5867 5866 5864 5863 5862 5861 5859 5858 5858 5856 5855 5854 5853 5852 5851 5850 5849 5848 5847 5846 5844 5843
5898 5896 5894 5893 5891 5890 5888 5886 5885 5883 5882 5880 5879 5878 5876 5874 5873 5871 5869 5868 5867 5865 5863 5861 5859 5859 5857 5855 5854 5853 5852 5850 5849 5848 5847 5846 5844 5843 5842 5841 5839 5838 5837
5897 5895 5893 5892 5890 5888 5887 5885 5883 5882 5880 5878 5877 5875 5874 5872 5870 5868 5867 5865 5863 5862 5859 5857 5856 5855 5853 5851 5850 5848 5846 5845 5843 5842 5841 5840 5838 5837 5835 5834 5832 5831 5830
5896 5894 5892 5890 5889 5887 5885 5883 5882 5880 5878 5876 5874 5873 5871 5869 5867 5866 5864 5862 5860 5858 5856 5854 5852 5850 5849 5847 5845 5843 5841 5839 5838 5836 5835 5833 5831 5830 5828 5827 5825 5824 5822
5894 5893 5891 5889 5887 5885 5883 5881 5879 5877 5875 5874 5872 5870 5868 5867 5865 5863 5861 5859 5857 5854 5853 5850 5848 5846 5844 5842 5840 5838 5836 5834 5832 5830 5828 5827 5825 5823 5821 5820 5818 5816 5815
5893 5891 5889 5887 5885 5883 5881 5878 5876 5874 5872 5871 5869 5867 5866 5864 5862 5860 5858 5855 5853 5851 5848 5846 5844 5842 5840 5837 5835 5833 5831 5829 5827 5825 5823 5821 5819 5816 5814 5812 5811 5809 5807
5891 5889 5887 5885 5883 5881 5878 5876 5873 5872 5870 5868 5866 5864 5862 5860 5858 5856 5854 5852 5850 5847 5845 5842 5840 5838 5835 5833 5830 5828 5825 5823 5821 5819 5817 5815 5813 5810 5808 5806 5804 5802 5799
5889 5887 5885 5883 5881 5878 5876 5873 5871 5869 5867 5865 5862 5860 5858 5856 5854 5852 5850 5848 5846 5843 5841 5838 5836 5833 5831 5828 5826 5823 5820 5818 5815 5813 5811 5808 5806 5804 5801 5799 5797 5794 5791
5886 5885 5882 5880 5878 5876 5873 5871 5868 5866 5864 5862 5859 5857 5855 5853 5851 5848 5846 5844 5842 5839 5836 5834 5831 5828 5826 5823 5820 5817 5814 5812 5809 5807 5804 5802 5800 5797 5795 5792 5789 5786 5783
5883 5881 5879 5877 5875 5873 5870 5868 5865 5863 5861 5858 5856 5853 5851 5849 5847 5845 5842 5840 5837 5834 5832 5829 5826 5823 5820 5818 5815 5812 5809 5806 5803 5800 5798 5795 5793 5790 5787 5784 5781 5778 5775
5879 5878 5876 5874 5872 5870 5867 5865 5862 5860 5857 5855 5852 5850 5848 5845 5843 5840 5838 5835 5832 5829 5826 5823 5821 5818 5815 5812 5808 5806 5803 5799 5796 5793 5790 5788 5785 5782 5779 5776 5772 5769 5766
5876 5874 5872 5870 5868 5866 5864 5862 5859 5857 5854 5852 5849 5847 5844 5841 5839 5836 5833 5831 5827 5824 5821 5818 5815 5812 5808 5805 5802 5799 5796 5793 5790 5786 5783 5780 5777 5774 5771 5768 5764 5761 5757
5872 5871 5869 5867 5865 5863 5861 5859 5856 5854 5851 5849 5846 5843 5840 5837 5834 5831 5829 5826 5822 5819 5816 5813 5809 5806 5802 5799 5796 5792 5789 5786 5782 5779 5775 5772 5768 5765 5762 5759 5755 5752 5748